Location: Easthampton
(42.2676°N, 72.6690°W)
Time: 12:45:01
(UTC+00:00)

RS-44 - Visible Passes

Search period start: 27 March 2023 00:00
Search period end: 06 April 2023 00:00
Orbit: 1174 x 1511 km, 82.5° (Epoch: 27 March)

Date Brightness Start Highest point End Pass type
(mag) Time Alt. Az. Time Alt. Az. Time Alt. Az.
27 Mar ? 05:36:20 10° N 05:43:12 35° ENE 05:43:12 35° ENE visible
27 Mar ? 07:29:30 10° NNW 07:35:47 47° WNW 07:35:47 47° WNW visible
28 Mar ? 05:59:45 10° N 06:06:41 51° NE 06:06:41 51° NE visible
28 Mar ? 07:53:44 10° NNW 07:59:15 32° WNW 07:59:15 32° WNW visible
29 Mar ? 04:31:55 10° NNE 04:36:56 17° ENE 04:37:37 17° ENE visible
29 Mar ? 06:23:23 10° N 06:30:11 64° NNE 06:30:11 64° NNE visible
29 Mar ? 08:18:23 10° NW 08:22:46 21° WNW 08:22:46 21° WNW visible
30 Mar ? 04:54:38 10° NNE 05:01:08 26° ENE 05:01:08 26° ENE visible
30 Mar ? 06:47:13 10° NNW 06:53:43 57° NW 06:53:43 57° NW visible
30 Mar ? 08:44:05 10° NW 08:46:18 13° WNW 08:46:18 13° WNW visible
31 Mar ? 05:17:51 10° N 05:24:41 39° ENE 05:24:41 39° ENE visible
31 Mar ? 07:11:15 10° NNW 07:17:16 42° WNW 07:17:16 42° WNW visible
01 Apr ? 03:51:25 10° NE 03:54:19 12° ENE 03:55:40 11° ENE visible
01 Apr ? 05:41:21 10° N 05:48:14 55° NE 05:48:14 55° NE visible
01 Apr ? 07:35:34 10° NNW 07:40:50 28° WNW 07:40:50 28° WNW visible
02 Apr ? 04:13:11 10° NNE 04:18:54 20° ENE 04:19:14 19° ENE visible
02 Apr ? 06:05:03 10° N 06:11:49 64° N 06:11:49 64° N visible
02 Apr ? 08:00:23 10° NW 08:04:24 19° WNW 08:04:24 19° WNW visible
03 Apr ? 04:36:07 10° N 04:42:50 30° ENE 04:42:50 30° ENE visible
03 Apr ? 06:28:56 10° NNW 06:35:25 53° NW 06:35:25 53° NW visible
03 Apr ? 08:26:47 10° WNW 08:28:00 11° WNW 08:28:00 11° WNW visible
04 Apr ? 04:59:26 10° N 05:06:26 43° ENE 05:06:26 43° ENE visible
04 Apr ? 06:53:03 10° NNW 06:59:01 38° WNW 06:59:01 38° WNW visible
05 Apr ? 03:32:14 10° NNE 03:36:20 14° ENE 03:37:28 14° ENE visible
05 Apr ? 05:23:00 10° N 05:30:03 59° NE 05:30:03 59° NE visible
05 Apr ? 07:17:28 10° NNW 07:22:38 26° WNW 07:22:38 26° WNW visible
